Погода в Турне

Бельгия     50°36′19″N   3°23′17″E
темп.,
°C
ветер,
м/с
пор.,
м/с
влажн.,
%
обл.,
%
осадки,
мм/ч
давл.,
гПа
погр.,
м
27 января, чт
чт2701:00+6зюз6974100 0.0 1031507
04:00+5юз51181100 0.0 1029309
07:00+4юз51295100 0.0 1028312
10:00+7зюз61488100 0.0 1027655
13:00+8з71390100 0.1 1027613
16:00+8з51192100 0.0 1027599
19:00+8сз5117929 0.3 1028476
22:00+5зсз49875 0.0 1031199
28 января, пт
пт2801:00+4сз379288 0.0 1033128
04:00+3сз339297 0.0 103439
07:00+3сз2292100 0.0 103617
10:00+4з229075 0.0 103882
13:00+8зюз34705 0.0 1037576
16:00+7юз3670100 0.0 1036245
19:00+5юз498773 0.0 1035168
22:00+4юз5129284 0.0 1034300
29 января, сб
сб2901:00+6юз5118283 0.0 1032375
04:00+6юз5128836 0.0 1031400
07:00+8зюз61293100 0.1 1029714
10:00+9зюз61291100 0.1 1029792
13:00+10зюз7138485 0.2 1027867
16:00+11з91582100 0.0 1026879
19:00+10з81582100 0.0 10261215
22:00+9сз812735 0.1 10291011
30 января, вс
вс3001:00+5сз510735 0.2 1031408
04:00+3зсз35825 0.0 103297
07:00+2зсз33855 0.0 103336
10:00+3зсз23805 0.0 1035130
13:00+7ссз346326 0.0 10351104
16:00+6с346142 0.0 10341071
19:00+3с226917 0.0 103316
22:00+2зюз117343 0.0 103110
31 января, пн
пн3101:00+1юз2379100 0.0 103044
04:00+1ююз3684100 0.0 1026140
07:00+1юз3790100 0.1 1024259
10:00+2ююз4691100 0.1 1022258
13:00+4юз4486100 0.2 1022588
16:00+2з3599100 0.9 1022298
19:00+3ссз4988100 1.1 1024600
22:00+4сз41086100 0.1 1025633